,,PA_Meas_PMT16A,,PR_Meas_QMR101_102,,RH_Meas_QMH101,,SR_Meas_QMS101,,TA_Meas_QMH101,,GenWind,,GenWind,
time,status,PA,status,PR,status,RH,status,SR,status,TA,status,DirAvg,status,SpdAvg,
2016-07-18, 07:45:04,VALID,918.426,VALID,0,INVALID,109.914,VALID,116.574,VALID,20.2909,VALID,259,VALID,0,
2016-07-18, 07:46:04,VALID,918.408,VALID,0,INVALID,109.884,VALID,120.012,VALID,20.3479,VALID,258,VALID,0,
2016-07-18, 07:47:04,VALID,918.466,VALID,0,INVALID,109.876,VALID,117.003,VALID,20.408,VALID,258,VALID,0,
2016-07-18, 07:51:04,VALID,918.558,VALID,0,INVALID,110.075,VALID,113.673,VALID,20.3105,VALID,282,VALID,0,
2016-07-18, 07:52:04,VALID,918.598,VALID,0,INVALID,110.12,VALID,115.929,VALID,20.3089,VALID,282,VALID,0,
2016-07-18, 07:53:04,VALID,918.62,VALID,0,INVALID,110.135,VALID,116.251,VALID,20.3284,VALID,282,VALID,0,
2016-07-18, 07:54:04,VALID,918.567,VALID,0,INVALID,110.174,VALID,117.541,VALID,20.369,VALID,282,VALID,0,
2016-07-18, 07:55:04,VALID,918.564,VALID,0,INVALID,110.196,VALID,121.194,VALID,20.369,VALID,282,VALID,0,
2016-07-18, 07:56:04,VALID,918.564,VALID,0,INVALID,110.204,VALID,127.64,VALID,20.3869,VALID,281,VALID,0,
2016-07-18, 07:57:04,VALID,918.534,VALID,0,INVALID,110.227,VALID,134.194,VALID,20.4064,VALID,282,VALID,0,
2016-07-18, 07:58:04,VALID,918.557,VALID,0,INVALID,110.196,VALID,134.731,VALID,20.4845,VALID,282,VALID,0,
2016-07-18, 07:59:04,VALID,918.565,VALID,0,INVALID,110.227,VALID,130.756,VALID,20.4845,VALID,282,VALID,0,
2016-07-18, 08:00:04,VALID,918.53,VALID,0,INVALID,110.28,VALID,131.938,VALID,20.5235,VALID,282,VALID,0,
2016-07-18, 08:01:04,VALID,918.516,VALID,0,INVALID,110.242,VALID,129.037,VALID,20.6015,VALID,282,VALID,0,
2016-07-18, 08:02:04,VALID,918.512,VALID,0,INVALID,110.257,VALID,123.557,VALID,20.6405,VALID,282,VALID,0,
2016-07-18, 08:03:04,VALID,918.511,VALID,0,INVALID,110.433,VALID,127.318,VALID,20.5625,VALID,295,VALID,0,
2016-07-18, 08:04:04,VALID,918.492,VALID,0,INVALID,110.631,VALID,176.096,VALID,20.504,VALID,295,VALID,0,
2016-07-18, 08:05:04,VALID,918.509,VALID,0,INVALID,110.608,VALID,174.592,VALID,20.543,VALID,294,VALID,0,
2016-07-18, 08:06:04,VALID,918.524,VALID,0,INVALID,110.601,VALID,186.518,VALID,20.582,VALID,294,VALID,0,
2016-07-18, 08:07:04,VALID,918.506,VALID,0,INVALID,110.494,VALID,181.038,VALID,20.699,VALID,331,VALID,0,
2016-07-18, 08:08:04,VALID,918.527,VALID,0,INVALID,110.639,VALID,153.963,VALID,20.7381,VALID,356,VALID,0,
2016-07-18, 08:09:04,VALID,918.518,VALID,0,INVALID,110.578,VALID,188.022,VALID,20.8356,VALID,356,VALID,0,
2016-07-18, 08:10:04,VALID,918.516,VALID,0,INVALID,110.639,VALID,220.684,VALID,20.8551,VALID,355,VALID,0,
2016-07-18, 08:11:04,VALID,918.526,VALID,0,INVALID,110.623,VALID,196.402,VALID,20.93,VALID,356,VALID,0,
2016-07-18, 08:12:04,VALID,918.515,VALID,0,INVALID,110.623,VALID,195.435,VALID,21.0697,VALID,356,VALID,0,
2016-07-18, 08:13:04,VALID,918.524,VALID,0,INVALID,110.799,VALID,184.799,VALID,21.0096,VALID,356,VALID,0,
2016-07-18, 08:14:04,VALID,918.495,VALID,0,INVALID,110.89,VALID,187.7,VALID,21.0697,VALID,356,VALID,0,
2016-07-18, 08:15:04,VALID,918.485,VALID,0,INVALID,111.043,VALID,175.989,VALID,21.0291,VALID,356,VALID,0,
2016-07-18, 08:16:04,VALID,918.485,VALID,0,INVALID,111.134,VALID,152.352,VALID,21.1087,VALID,356,VALID,0,
2016-07-18, 08:17:04,VALID,918.497,VALID,0,INVALID,111.287,VALID,160.839,VALID,21.0876,VALID,357,VALID,0,
2016-07-18, 08:18:04,VALID,918.492,VALID,0,INVALID,111.363,VALID,189.096,VALID,21.1445,VALID,356,VALID,0,
2016-07-18, 08:19:04,VALID,918.522,VALID,0,INVALID,111.592,VALID,234.007,VALID,21.1478,VALID,344,VALID,0,
2016-07-18, 08:20:04,VALID,918.542,VALID,0,INVALID,111.752,VALID,317.811,VALID,21.1266,VALID,341,VALID,0,
2016-07-18, 08:21:04,VALID,918.57,VALID,0,INVALID,112.026,VALID,357.994,VALID,21.1071,VALID,323,VALID,0,
2016-07-18, 08:22:04,VALID,918.584,VALID,0,INVALID,112.278,VALID,385.177,VALID,21.1298,VALID,311,VALID,0,
2016-07-18, 08:23:04,VALID,918.588,VALID,0,INVALID,112.423,VALID,326.191,VALID,21.1689,VALID,311,VALID,0,
2016-07-18, 08:24:04,VALID,918.626,VALID,0,INVALID,112.468,VALID,384.21,VALID,21.2453,VALID,323,VALID,0,
2016-07-18, 08:25:04,VALID,918.628,VALID,0,INVALID,112.743,VALID,439.112,VALID,21.3624,VALID,280,VALID,0,
2016-07-18, 08:26:04,VALID,918.679,VALID,0,INVALID,113.421,VALID,320.067,VALID,21.2453,VALID,273,VALID,0,
2016-07-18, 08:27:04,VALID,918.697,VALID,0,INVALID,113.757,VALID,246.792,VALID,21.2843,VALID,273,VALID,0,
2016-07-18, 08:28:04,VALID,918.707,VALID,0,INVALID,114.26,VALID,230.032,VALID,21.2843,VALID,281,VALID,0,
2016-07-18, 08:29:04,VALID,918.7,VALID,0,INVALID,114.702,VALID,246.9,VALID,21.2453,VALID,281,VALID,0,
2016-07-18, 08:30:04,VALID,918.751,VALID,0,INVALID,114.992,VALID,326.191,VALID,21.2453,VALID,281,VALID,0,
2016-07-18, 08:31:04,VALID,918.748,VALID,0,INVALID,115.243,VALID,394.524,VALID,21.3234,VALID,305,VALID,0,
2016-07-18, 08:32:04,VALID,918.792,VALID,0,INVALID,115.701,VALID,250.553,VALID,21.2632,VALID,307,VALID,0,
2016-07-18, 08:33:04,VALID,918.768,VALID,0,INVALID,115.899,VALID,211.122,VALID,21.2632,VALID,310,VALID,0,
2016-07-18, 08:34:04,VALID,918.767,VALID,0,INVALID,116.006,VALID,184.154,VALID,21.3022,VALID,341,VALID,0,
2016-07-18, 08:35:04,VALID,918.798,VALID,0,INVALID,116.15,VALID,161.377,VALID,21.2632,VALID,263,VALID,0,
2016-07-18, 08:36:04,VALID,918.8,VALID,0,INVALID,116.097,VALID,147.087,VALID,21.2047,VALID,262,VALID,0,
2016-07-18, 08:37:04,VALID,918.805,VALID,0,INVALID,115.952,VALID,182.22,VALID,21.2047,VALID,265,VALID,0,
2016-07-18, 08:38:04,VALID,918.802,VALID,0,INVALID,115.823,VALID,159.55,VALID,21.2047,VALID,264,VALID,0,
2016-07-18, 08:39:04,VALID,918.813,VALID,0,INVALID,115.662,VALID,158.476,VALID,21.2047,VALID,264,VALID,0,
2016-07-18, 08:40:04,VALID,918.812,VALID,0,INVALID,115.487,VALID,180.071,VALID,21.164,VALID,264,VALID,0,
2016-07-18, 08:41:04,VALID,918.837,VALID,0,INVALID,115.319,VALID,197.692,VALID,21.1445,VALID,264,VALID,0,
2016-07-18, 08:42:04,VALID,918.813,VALID,0,INVALID,115.251,VALID,232.718,VALID,21.2047,VALID,264,VALID,0,
2016-07-18, 08:43:04,VALID,918.8,VALID,0,INVALID,115.258,VALID,223.048,VALID,21.2616,VALID,264,VALID,0,
2016-07-18, 08:44:04,VALID,918.798,VALID,0,INVALID,115.228,VALID,220.899,VALID,21.3396,VALID,263,VALID,0,
2016-07-18, 08:45:04,VALID,918.782,VALID,0,INVALID,114.992,VALID,205.427,VALID,21.3412,VALID,263,VALID,0,
2016-07-18, 08:46:04,VALID,918.782,VALID,0,INVALID,114.832,VALID,189.204,VALID,21.3201,VALID,264,VALID,0,
2016-07-18, 08:47:04,VALID,918.795,VALID,0,INVALID,114.938,VALID,181.146,VALID,21.3396,VALID,263,VALID,0,
2016-07-18, 08:48:04,VALID,918.79,VALID,0,INVALID,114.992,VALID,184.906,VALID,21.3786,VALID,263,VALID,0,
2016-07-18, 08:49:04,VALID,918.777,VALID,0,INVALID,114.87,VALID,208.973,VALID,21.3981,VALID,263,VALID,0,
2016-07-18, 08:50:04,VALID,918.816,VALID,0,INVALID,114.992,VALID,218.643,VALID,21.4567,VALID,264,VALID,0,
2016-07-18, 08:51:04,VALID,918.817,VALID,0,INVALID,114.877,VALID,347.142,VALID,21.4957,VALID,264,VALID,0,
2016-07-18, 08:52:04,VALID,918.805,VALID,0,INVALID,114.748,VALID,554.826,VALID,21.5542,VALID,265,VALID,0,
2016-07-18, 08:53:04,VALID,918.822,VALID,0,INVALID,114.908,VALID,223.263,VALID,21.6713,VALID,265,VALID,0,
2016-07-18, 08:54:04,VALID,918.822,VALID,0,INVALID,114.687,VALID,234.866,VALID,21.7493,VALID,264,VALID,0,
2016-07-18, 08:55:04,VALID,918.852,VALID,0,INVALID,114.732,VALID,599.844,VALID,21.8647,VALID,274,VALID,0,
2016-07-18, 08:56:04,VALID,918.872,VALID,0,INVALID,114.557,VALID,595.761,VALID,22.081,VALID,10,VALID,0,
2016-07-18, 08:57:04,VALID,918.922,VALID,0,INVALID,114.626,VALID,638.738,VALID,22.3916,VALID,21,VALID,0,
2016-07-18, 08:58:04,VALID,918.948,VALID,0,INVALID,111.096,VALID,667.424,VALID,22.4501,VALID,287,VALID,0,
2016-07-18, 08:59:04,VALID,918.961,VALID,0,INVALID,110.669,VALID,479.295,VALID,22.6079,VALID,296,VALID,0,
2016-07-18, 09:00:04,VALID,919.002,VALID,0,VALID,104,VALID,480.692,VALID,22.5884,VALID,301,VALID,0,
2016-07-18, 09:01:04,VALID,919.032,VALID,0,INVALID,109.617,VALID,239.057,VALID,22.6665,VALID,317,VALID,0,
2016-07-18, 09:02:04,VALID,919.02,VALID,0,INVALID,109.289,VALID,231.643,VALID,22.8014,VALID,324,VALID,0,
2016-07-18, 09:03:04,VALID,919.045,VALID,0,VALID,104,VALID,236.8,VALID,22.9185,VALID,278,VALID,0,
2016-07-18, 09:04:04,VALID,919.051,VALID,0,VALID,104,VALID,242.71,VALID,22.977,VALID,240,VALID,0,
2016-07-18, 09:05:04,VALID,919.067,VALID,0,VALID,90.0402,VALID,257.644,VALID,23.0178,VALID,291,VALID,0,
2016-07-18, 09:06:04,VALID,919.061,VALID,0,VALID,103.663,VALID,292.455,VALID,23.0763,VALID,290,VALID,0,
2016-07-18, 09:07:04,VALID,919.065,VALID,0,VALID,92.0527,VALID,335.968,VALID,23.0178,VALID,289,VALID,0,
2016-07-18, 09:08:04,VALID,919.051,VALID,0,VALID,101.399,VALID,390.656,VALID,22.9592,VALID,351,VALID,0,
2016-07-18, 09:09:04,VALID,919.083,VALID,0,VALID,103.053,VALID,257.644,VALID,23.0178,VALID,325,VALID,0,
2016-07-18, 09:10:04,VALID,919.086,VALID,0,VALID,97.9228,VALID,212.733,VALID,23.0356,VALID,257,VALID,0,
2016-07-18, 09:11:04,VALID,919.061,VALID,0,VALID,95.9407,VALID,186.41,VALID,22.9787,VALID,253,VALID,0,
2016-07-18, 09:12:04,VALID,919.066,VALID,0,VALID,98.3878,VALID,177.6,VALID,22.8989,VALID,253,VALID,0,
2016-07-18, 09:13:04,VALID,919.061,VALID,0,VALID,100.233,VALID,171.798,VALID,22.9397,VALID,254,VALID,0,
2016-07-18, 09:14:04,VALID,919.077,VALID,0,VALID,103.046,VALID,153.426,VALID,22.9575,VALID,252,VALID,0,
2016-07-18, 09:15:04,VALID,919.081,VALID,0,VALID,103.297,VALID,136.45,VALID,22.9185,VALID,253,VALID,0,
2016-07-18, 09:16:04,VALID,919.077,VALID,0,VALID,103.404,VALID,124.632,VALID,22.9202,VALID,211,VALID,0.452344,
2016-07-18, 09:17:04,VALID,919.114,VALID,0,VALID,104,VALID,123.02,VALID,22.8209,VALID,247,VALID,0,
2016-07-18, 09:18:04,VALID,919.139,VALID,0,VALID,104,VALID,130.756,VALID,22.5281,VALID,252,VALID,0,
2016-07-18, 09:19:04,VALID,919.099,VALID,0,INVALID,109.701,VALID,139.996,VALID,22.3347,VALID,267,VALID,0,
2016-07-18, 09:20:04,VALID,919.111,VALID,0,INVALID,110.669,VALID,150.418,VALID,22.1769,VALID,248,VALID,0,
2016-07-18, 09:21:04,VALID,919.12,VALID,0,INVALID,111.546,VALID,173.41,VALID,22.0598,VALID,250,VALID,0,
2016-07-18, 09:22:04,VALID,919.112,VALID,0,INVALID,112.453,VALID,185.229,VALID,22.0208,VALID,250,VALID,0,
2016-07-18, 09:23:04,VALID,919.108,VALID,0,INVALID,112.849,VALID,187.055,VALID,21.9623,VALID,247,VALID,0,
2016-07-18, 09:24:04,VALID,919.099,VALID,0,INVALID,112.918,VALID,206.072,VALID,21.9818,VALID,251,VALID,0,
2016-07-18, 09:25:04,VALID,919.118,VALID,0,INVALID,112.895,VALID,214.238,VALID,22.003,VALID,255,VALID,0,
2016-07-18, 09:26:04,VALID,919.108,VALID,0,INVALID,112.849,VALID,195.65,VALID,22.042,VALID,258,VALID,0,
2016-07-18, 09:27:04,VALID,919.072,VALID,0,INVALID,112.148,VALID,181.361,VALID,22.003,VALID,229,VALID,0,
2016-07-18, 09:28:04,VALID,919.111,VALID,0,INVALID,112.666,VALID,173.947,VALID,22.0403,VALID,253,VALID,0,
2016-07-18, 09:29:04,VALID,919.077,VALID,0,INVALID,112.514,VALID,171.154,VALID,22.0403,VALID,250,VALID,0,
2016-07-18, 09:30:04,VALID,919.068,VALID,0,INVALID,112.27,VALID,165.244,VALID,22.081,VALID,239,VALID,0,
2016-07-18, 09:31:04,VALID,919.08,VALID,0,INVALID,112.415,VALID,150.955,VALID,22.0794,VALID,232,VALID,0,
2016-07-18, 09:32:04,VALID,919.045,VALID,0,INVALID,112.491,VALID,139.996,VALID,22.1184,VALID,250,VALID,0,
2016-07-18, 09:33:04,VALID,919.06,VALID,0,INVALID,112.651,VALID,135.806,VALID,22.1005,VALID,245,VALID,0,
2016-07-18, 09:34:04,VALID,919.076,VALID,0,INVALID,112.697,VALID,133.12,VALID,22.0794,VALID,264,VALID,0,
2016-07-18, 09:35:04,VALID,919.049,VALID,0,INVALID,112.674,VALID,129.252,VALID,22.1184,VALID,268,VALID,0,
2016-07-18, 09:36:04,VALID,919.067,VALID,0,INVALID,112.682,VALID,143.112,VALID,22.1964,VALID,268,VALID,0,
2016-07-18, 09:37:04,VALID,919.05,VALID,0,INVALID,112.926,VALID,156.649,VALID,22.2745,VALID,339,VALID,0,
2016-07-18, 09:38:04,VALID,919.074,VALID,0,INVALID,112.186,VALID,178.137,VALID,22.294,VALID,357,VALID,0,
2016-07-18, 09:39:04,VALID,919.073,VALID,0,INVALID,112.514,VALID,204.783,VALID,22.3525,VALID,9,VALID,0,
2016-07-18, 09:40:04,VALID,919.116,VALID,0,INVALID,112.689,VALID,216.172,VALID,22.4111,VALID,10,VALID,0,
2016-07-18, 09:41:04,VALID,919.092,VALID,0,INVALID,112.857,VALID,212.089,VALID,22.4891,VALID,18,VALID,0,
2016-07-18, 09:42:04,VALID,919.135,VALID,0,INVALID,112.781,VALID,265.272,VALID,22.6062,VALID,7,VALID,0,
2016-07-18, 09:43:04,VALID,919.13,VALID,0,INVALID,112.659,VALID,381.953,VALID,22.8014,VALID,34,VALID,0,
2016-07-18, 09:44:04,VALID,919.125,VALID,0,INVALID,111.485,VALID,314.48,VALID,22.9185,VALID,356,VALID,0,
2016-07-18, 09:45:04,VALID,919.119,VALID,0,INVALID,110.097,VALID,189.096,VALID,22.9965,VALID,8,VALID,0,
2016-07-18, 09:46:04,VALID,919.126,VALID,0,INVALID,109.914,VALID,201.56,VALID,23.0551,VALID,11,VALID,0,
2016-07-18, 09:47:04,VALID,919.111,VALID,0,INVALID,109.205,VALID,197.799,VALID,22.9965,VALID,13,VALID,0,
2016-07-18, 09:48:04,VALID,919.119,VALID,0,INVALID,109.594,VALID,197.584,VALID,22.9965,VALID,19,VALID,0,
2016-07-18, 09:49:04,VALID,919.117,VALID,0,VALID,104,VALID,227.99,VALID,23.0356,VALID,22,VALID,0,
2016-07-18, 09:50:04,VALID,919.115,VALID,0,VALID,104,VALID,240.668,VALID,23.016,VALID,204,VALID,0.511719,
2016-07-18, 09:51:04,VALID,919.113,VALID,0,VALID,104,VALID,815.478,VALID,23.0551,VALID,22,VALID,0.239063,
2016-07-18, 09:52:04,VALID,919.133,VALID,0,VALID,104,VALID,850.612,VALID,23.268,VALID,22,VALID,0,
2016-07-18, 09:53:04,VALID,919.083,VALID,0,VALID,104,VALID,757.245,VALID,23.543,VALID,18,VALID,0.0015625,
2016-07-18, 09:54:04,VALID,919.073,VALID,0,VALID,93.7451,VALID,877.902,VALID,23.7578,VALID,11,VALID,0.0078125,
2016-07-18, 09:55:04,VALID,919.071,VALID,0,VALID,93.2954,VALID,817.09,VALID,23.9902,VALID,14,VALID,0.460156,
2016-07-18, 09:56:04,VALID,919.078,VALID,0,VALID,84.5666,VALID,904.225,VALID,24.1482,VALID,159,VALID,0,
2016-07-18, 09:57:04,VALID,919.063,VALID,0,VALID,82.0966,VALID,780.453,VALID,24.3416,VALID,15,VALID,0.01875,
2016-07-18, 09:58:04,VALID,919.125,VALID,0,VALID,84.5437,VALID,885.423,VALID,24.5759,VALID,33,VALID,0.327344,
2016-07-18, 09:59:04,VALID,919.057,VALID,0,VALID,80.0382,VALID,340.374,VALID,24.7516,VALID,334,VALID,0,
2016-07-18, 10:00:04,VALID,919.098,VALID,0,VALID,78.6889,VALID,301.91,VALID,24.7321,VALID,2,VALID,0,
2016-07-18, 10:01:04,VALID,919.098,VALID,0,VALID,80.4728,VALID,250.875,VALID,24.6149,INVALID,360,VALID,0,
2016-07-18, 10:02:04,VALID,919.099,VALID,0,VALID,81.197,VALID,216.924,VALID,24.574,VALID,5,VALID,0,
2016-07-18, 10:03:04,VALID,919.09,VALID,0,VALID,79.7181,VALID,195.758,VALID,24.5954,VALID,345,VALID,0,
2016-07-18, 10:04:04,VALID,919.113,VALID,0,VALID,80.6252,VALID,185.873,VALID,24.4197,VALID,24,VALID,0,
2016-07-18, 10:05:04,VALID,919.099,VALID,0,VALID,83.0647,VALID,183.832,VALID,24.2812,VALID,28,VALID,0,
2016-07-18, 10:06:04,VALID,919.077,VALID,0,VALID,84.5818,VALID,191.245,VALID,24.244,VALID,18,VALID,0,
2016-07-18, 10:07:04,VALID,919.024,VALID,0,VALID,81.2351,VALID,188.344,VALID,24.0878,VALID,337,VALID,0.471484,
2016-07-18, 10:08:04,VALID,919.018,VALID,0,VALID,85.8244,VALID,209.08,VALID,23.8536,VALID,15,VALID,1.26172,
2016-07-18, 10:09:04,VALID,919.016,VALID,0,VALID,85.5881,VALID,266.561,VALID,23.6779,VALID,334,VALID,0,
2016-07-18, 10:10:04,VALID,918.954,VALID,0,VALID,86.3657,VALID,333.497,VALID,23.5022,VALID,23,VALID,0.521094,
2016-07-18, 10:11:04,VALID,918.967,VALID,0,VALID,97.0918,VALID,294.496,VALID,23.4241,VALID,23,VALID,0.218359,
2016-07-18, 10:12:04,VALID,918.934,VALID,0,VALID,101.689,VALID,328.125,VALID,23.4632,VALID,6,VALID,0,
2016-07-18, 10:13:04,VALID,918.925,VALID,0,VALID,96.0093,VALID,884.67,VALID,23.4632,VALID,306,VALID,0,
2016-07-18, 10:14:04,VALID,918.932,VALID,0,VALID,97.7169,VALID,274.62,VALID,23.5803,VALID,5,VALID,0,
2016-07-18, 10:15:04,VALID,918.903,VALID,0,VALID,90.5128,VALID,232.825,VALID,23.7169,VALID,5,VALID,0,
2016-07-18, 10:16:04,VALID,918.908,VALID,0,VALID,87.7684,VALID,192.642,VALID,23.795,VALID,260,VALID,0,
2016-07-18, 10:17:04,VALID,918.906,VALID,0,VALID,87.5854,VALID,168.253,VALID,23.8731,VALID,18,VALID,0,
2016-07-18, 10:18:04,VALID,918.918,VALID,0,VALID,85.6415,VALID,158.691,VALID,23.9121,VALID,21,VALID,0,
2016-07-18, 10:19:04,VALID,918.923,VALID,0,VALID,83.9414,VALID,152.674,VALID,23.756,VALID,13,VALID,0,
2016-07-18, 10:20:04,VALID,918.931,VALID,0,VALID,84.9401,VALID,178.567,VALID,23.6193,VALID,332,VALID,0,
2016-07-18, 10:21:04,VALID,918.913,VALID,0,VALID,89.8725,VALID,205.75,VALID,23.5803,VALID,360,VALID,0,
2016-07-18, 10:22:04,VALID,918.904,VALID,0,VALID,86.2285,VALID,225.304,VALID,23.4827,VALID,16,VALID,0,
2016-07-18, 10:23:04,VALID,918.875,VALID,0,VALID,88.0352,VALID,269.462,VALID,23.3461,VALID,56,VALID,0,
2016-07-18, 10:24:04,VALID,918.899,VALID,0,VALID,98.5098,VALID,823.107,VALID,23.3265,VALID,261,VALID,0,
2016-07-18, 10:25:04,VALID,918.855,VALID,0,VALID,103.968,VALID,264.198,VALID,23.4632,VALID,273,VALID,0,
2016-07-18, 10:26:04,VALID,918.873,VALID,0,VALID,92.8913,VALID,220.469,VALID,23.5998,VALID,273,VALID,0,
2016-07-18, 10:27:04,VALID,918.864,VALID,0,VALID,89.0186,VALID,157.509,VALID,23.5803,VALID,272,VALID,0,
2016-07-18, 10:28:04,VALID,918.85,VALID,0,VALID,95.7272,VALID,147.946,VALID,23.5803,VALID,289,VALID,0,
2016-07-18, 10:29:04,VALID,918.871,VALID,0,VALID,89.5828,VALID,148.699,VALID,23.5217,VALID,353,VALID,0,
2016-07-18, 10:30:04,VALID,918.839,VALID,0,VALID,97.1986,VALID,148.591,VALID,23.5022,VALID,13,VALID,0,
2016-07-18, 10:31:04,VALID,918.812,VALID,0,VALID,100.667,VALID,145.583,VALID,23.4632,VALID,20,VALID,0,
2016-07-18, 10:32:04,VALID,918.816,VALID,0,VALID,100.05,VALID,153.104,VALID,23.4827,VALID,334,VALID,0,
2016-07-18, 10:33:04,VALID,918.772,VALID,0,VALID,102.954,VALID,190.063,VALID,23.504,VALID,85,VALID,0,
2016-07-18, 10:34:04,VALID,918.779,VALID,0,VALID,102.886,VALID,884.026,VALID,23.543,VALID,57,VALID,0,
2016-07-18, 10:35:04,VALID,918.776,VALID,0,VALID,104,VALID,702.45,VALID,23.6388,VALID,57,VALID,0,
2016-07-18, 10:36:04,VALID,918.761,VALID,0,VALID,100.629,VALID,278.595,VALID,23.7523,VALID,19,VALID,0,
2016-07-18, 10:37:04,VALID,918.743,VALID,0,VALID,90.1316,VALID,290.091,VALID,23.9103,VALID,360,VALID,0,
2016-07-18, 10:38:04,VALID,918.749,VALID,0,VALID,84.7876,VALID,310.72,VALID,23.9493,VALID,336,VALID,0,
2016-07-18, 10:39:04,VALID,918.715,VALID,0,VALID,83.3849,VALID,382.276,VALID,23.9493,VALID,346,VALID,0,
2016-07-18, 10:40:04,VALID,918.693,VALID,0,VALID,82.4777,VALID,323.828,VALID,24.0079,VALID,324,VALID,0,
2016-07-18, 10:41:04,VALID,918.696,VALID,0,VALID,83.08,VALID,297.934,VALID,24.0274,VALID,300,VALID,0,
2016-07-18, 10:42:04,VALID,918.632,VALID,0,VALID,82.5387,VALID,365.515,VALID,24.0274,VALID,337,VALID,0,
2016-07-18, 10:43:04,VALID,918.656,VALID,0,VALID,82.1347,VALID,406.88,VALID,23.928,VALID,267,VALID,0,
2016-07-18, 10:44:04,VALID,918.62,VALID,0,VALID,83.7508,VALID,919.374,VALID,23.9103,VALID,336,VALID,0,
2016-07-18, 10:45:04,VALID,918.662,VALID,0,VALID,91.3209,VALID,736.831,VALID,23.9103,VALID,11,VALID,0,
2016-07-18, 10:46:04,VALID,918.638,VALID,0,VALID,84.719,VALID,427.938,VALID,23.8694,VALID,248,VALID,0.499219,
2016-07-18, 10:47:04,VALID,918.641,VALID,0,VALID,83.7813,VALID,381.738,VALID,23.8694,VALID,344,VALID,0.872266,
2016-07-18, 10:48:04,VALID,918.677,VALID,0,VALID,85.954,VALID,256.032,VALID,23.8908,VALID,38,VALID,0.359766,
2016-07-18, 10:49:04,VALID,918.638,VALID,0,VALID,83.0342,VALID,287.835,VALID,23.8499,VALID,48,VALID,0.00429688,
2016-07-18, 10:50:04,VALID,918.614,VALID,0,VALID,86.3581,VALID,229.709,VALID,23.8517,VALID,337,VALID,0.297266,
2016-07-18, 10:51:04,VALID,918.646,VALID,0,VALID,88.8585,VALID,266.024,VALID,23.8926,VALID,118,VALID,0,
2016-07-18, 10:52:04,VALID,918.647,VALID,0,VALID,82.2643,VALID,187.485,VALID,23.834,VALID,36,VALID,0.455469,
2016-07-18, 10:53:04,VALID,918.693,VALID,0,VALID,87.8904,VALID,199.841,VALID,23.7151,VALID,18,VALID,0.444922,
2016-07-18, 10:54:04,VALID,918.648,VALID,0,VALID,87.1051,VALID,222.833,VALID,23.5608,VALID,58,VALID,0,
2016-07-18, 10:55:04,VALID,918.632,VALID,0,VALID,101.338,VALID,331.563,VALID,23.4419,VALID,40,VALID,0,
2016-07-18, 10:56:04,VALID,918.661,VALID,0,VALID,102.443,VALID,235.726,VALID,23.4614,VALID,316,VALID,0,
2016-07-18, 10:57:04,VALID,918.638,VALID,0,VALID,102.36,VALID,239.594,VALID,23.5004,VALID,40,VALID,0,
2016-07-18, 10:58:04,VALID,918.671,VALID,0,VALID,97.9685,VALID,240.668,VALID,23.4809,VALID,40,VALID,0,
2016-07-18, 10:59:04,VALID,918.665,VALID,0,VALID,97.4196,VALID,228.527,VALID,23.4241,VALID,54,VALID,0.659375,
2016-07-18, 11:00:04,VALID,918.647,VALID,0,VALID,104,VALID,218.965,VALID,23.3053,VALID,13,VALID,0.103516,
2016-07-18, 11:01:04,VALID,918.653,VALID,0,VALID,104,VALID,202.419,VALID,23.268,VALID,43,VALID,0.0195313,
2016-07-18, 11:02:04,VALID,918.662,VALID,0,VALID,104,VALID,202.849,VALID,23.1509,VALID,256,VALID,0,
2016-07-18, 11:03:04,VALID,918.61,VALID,0,VALID,104,VALID,215.312,VALID,23.1491,VALID,266,VALID,0,
2016-07-18, 11:04:04,VALID,918.631,VALID,0,VALID,104,VALID,237.875,VALID,23.1509,VALID,7,VALID,1.0625,
2016-07-18, 11:05:04,VALID,918.599,VALID,0,VALID,102.634,VALID,259.255,VALID,23.0321,VALID,22,VALID,1.6918,
2016-07-18, 11:06:04,VALID,918.599,VALID,0,VALID,104,VALID,286.653,VALID,22.9753,VALID,62,VALID,1.61289,
2016-07-18, 11:07:04,VALID,918.588,VALID,0,VALID,104,VALID,289.339,VALID,22.9345,VALID,15,VALID,1.10039,
2016-07-18, 11:08:04,VALID,918.602,VALID,0,VALID,104,VALID,295.463,VALID,23.0338,VALID,27,VALID,1.3168,
2016-07-18, 11:09:04,VALID,918.599,VALID,0,VALID,104,VALID,296.215,VALID,23.1704,VALID,33,VALID,1.11992,
2016-07-18, 11:10:04,VALID,918.573,VALID,0,VALID,103.549,VALID,290.736,VALID,23.229,VALID,21,VALID,1.15391,
2016-07-18, 11:11:04,VALID,918.573,VALID,0,VALID,102.222,VALID,294.496,VALID,23.2467,VALID,44,VALID,0,
2016-07-18, 11:12:04,VALID,918.563,VALID,0,VALID,89.3464,VALID,304.166,VALID,23.2485,VALID,315,VALID,0,
2016-07-18, 11:13:04,VALID,918.555,VALID,0,VALID,97.008,VALID,382.383,VALID,23.229,VALID,3,VALID,0,
2016-07-18, 11:14:04,VALID,918.567,VALID,0,VALID,103.282,VALID,419.773,VALID,23.268,VALID,27,VALID,0,
2016-07-18, 11:15:04,VALID,918.558,VALID,0,VALID,104,VALID,448.03,VALID,23.3461,VALID,28,VALID,0,
2016-07-18, 11:16:04,VALID,918.551,VALID,0,VALID,104,VALID,472.419,VALID,23.4827,VALID,10,VALID,0.165234,
2016-07-18, 11:17:04,VALID,918.538,VALID,0,VALID,92.9981,VALID,719.319,VALID,23.5412,VALID,316,VALID,1.26875,
2016-07-18, 11:18:04,VALID,918.557,VALID,0,VALID,102.748,VALID,541.611,VALID,23.6388,VALID,9,VALID,1.87188,
2016-07-18, 11:19:04,VALID,918.536,VALID,0,VALID,85.9769,VALID,469.518,VALID,23.7151,VALID,304,VALID,1.43281,
2016-07-18, 11:20:04,VALID,918.511,VALID,0,VALID,88.9043,VALID,436.963,VALID,23.6761,VALID,360,VALID,1.36094,
2016-07-18, 11:21:04,VALID,918.457,VALID,0,VALID,87.1585,VALID,486.386,VALID,23.5998,VALID,1,VALID,1.61992,
2016-07-18, 11:22:04,VALID,918.448,VALID,0,VALID,93.7909,VALID,500.246,VALID,23.5785,VALID,356,VALID,1.14414,
2016-07-18, 11:23:04,VALID,918.448,VALID,0,VALID,101.925,VALID,598.877,VALID,23.5785,VALID,6,VALID,1.70234,
2016-07-18, 11:24:04,VALID,918.441,VALID,0,VALID,84.5742,VALID,967.722,VALID,23.6956,VALID,300,VALID,0.2625,
2016-07-18, 11:25:04,VALID,918.426,VALID,0,VALID,92.0985,VALID,528.396,VALID,23.8908,VALID,8,VALID,1.63203,
2016-07-18, 11:26:04,VALID,918.419,VALID,0,VALID,90.0707,VALID,431.054,VALID,24.1445,VALID,348,VALID,0.792188,
2016-07-18, 11:27:04,VALID,918.383,VALID,0,VALID,82.6759,VALID,441.583,VALID,24.2226,VALID,26,VALID,1.21328,
2016-07-18, 11:28:04,VALID,918.414,VALID,0,VALID,82.5616,VALID,393.127,VALID,24.1641,VALID,43,VALID,0.096875,
2016-07-18, 11:29:04,VALID,918.412,VALID,0,VALID,82.0889,VALID,366.912,VALID,24.1641,VALID,6,VALID,0.152344,
2016-07-18, 11:30:04,VALID,918.434,VALID,0,VALID,81.9898,VALID,391.945,VALID,24.1641,VALID,329,VALID,0.0148437,
2016-07-18, 11:31:04,VALID,918.413,VALID,0,VALID,87.7379,VALID,342.093,VALID,24.2031,VALID,16,VALID,0.00390625,